Home   Weather   Los Angeles   Past weeks
Flag for USA

Past Weather in Los Angeles, California, USA — Yesterday and Last 2 Weeks

Now
54 °F

Sunny.


Feels Like: 54 °F
Forecast: 51 / 74 °F
Wind: 3 mph from North

Location: Los Angeles / USC Campus Downtown

Current Time: Dec 19, 2018 at 8:36:25 am

Latest Report: Dec 19, 2018 at 7:47 am


Visibility: 10 mi

Pressure: 30.16 "Hg

Humidity: 72%

Dew Point: 45 °F

Location of Los AngelesLocation

Past Weather in Los Angeles — Graph

°F

Los Angeles Temperature Yesterday

Maximum temperature yesterday: 67 °F (at 1:47 pm)
Minimum temperature yesterday: 54 °F (at 5:47 am)
Average temperature yesterday: 59 °F

High & Low Weather Summary for the Past Weeks

 TemperatureHumidityPressure
High77 °F (Dec 13, 2:47 pm)97% (Dec 6, 9:05 am)30.28 "Hg (Dec 6, 9:05 am)
Low46 °F (Dec 16, 6:47 am)17% (Dec 4, 11:47 am)29.84 "Hg (Dec 6, 3:47 am)
Average59 °F67%30.08 "Hg
* Reported Dec 4 6:47 am — Dec 19 6:47 am, Los Angeles. Weather by CustomWeather, © 2018

Note: Actual official high and low records may vary slightly from our data, if they occured in-between our weather recording intervals... More about our weather records

Advertising

Los Angeles Weather History for the Previous 24 Hours

Scroll right to see more
 ConditionsComfort  
Time TempWeatherWind HumidityBarometerVisibility
6:47 am
Wed, Dec 19
50 °FClear.No wind86%30.16 "Hg9 mi
5:47 am51 °FClear.No wind86%30.13 "Hg9 mi
4:47 am51 °FClear.No wind89%30.13 "Hg7 mi
3:47 am53 °FClear.3 mph86%30.14 "Hg8 mi
2:47 am52 °FClear.No wind93%30.16 "Hg7 mi
1:47 am53 °FClear.No wind89%30.16 "Hg8 mi
12:47 am53 °FClear.No wind96%30.17 "Hg8 mi
11:47 pm
Tue, Dec 18
54 °FClear.No wind93%30.17 "Hg9 mi
10:47 pm55 °FClear.No wind93%30.19 "Hg9 mi
9:47 pm56 °FClear.No wind90%30.18 "Hg9 mi
8:47 pm57 °FClear.No wind90%30.16 "Hg10 mi
7:47 pm58 °FClear.No wind87%30.15 "Hg10 mi
6:47 pm59 °FClear.No wind87%30.14 "Hg10 mi
5:47 pm60 °FClear.3 mph83%30.14 "Hg10 mi
4:47 pm62 °FClear.No wind78%30.14 "Hg10 mi
3:47 pm64 °FSunny.5 mph70%30.13 "Hg10 mi
2:47 pm66 °FSunny.No wind63%30.14 "Hg10 mi
1:47 pm67 °FSunny.3 mph59%30.15 "Hg10 mi
12:47 pm66 °FSunny.No wind56%30.16 "Hg10 mi
11:47 am65 °FSunny.No wind61%30.19 "Hg7 mi
10:47 am63 °FSunny.No wind68%30.22 "Hg6 mi
9:47 am62 °FSunny.No wind73%30.23 "Hg6 mi
8:47 am59 °FSunny.No wind78%30.22 "Hg7 mi
Weather by CustomWeather, © 2018

See weather overview